Regional Weather Roundup
Issued by NWS Green Bay, WI

Home | Current Version | Previous Version | Graphics & Text | Print | Product List | Glossary Off
Versions: 1 2 3 4 5 6 7 8 9 10 11 12 13 14 15 16 17 18 19 20 21 22 23 24 25 26 27 28 29 30 31 32 33 34 35 36 37 38 39 40 41 42 43 44 45 46 47 48 49 50

000
ASUS43 KGRB 051210
RWRGRB

NORTH-CENTRAL AND NORTHEAST WISCONSIN REGIONAL WEATHER ROUNDUP
NATIONAL WEATHER SERVICE GREEN BAY WI
600 AM CST THU MAR 05 2015

WIZ005-009-010>012-018-019-051300-
NORTH CENTRAL WISCONSIN

CITY           SKY/WX    TMP DP  RH WIND       PRES   REMARKS
IRONWOOD       CLEAR     -9 -18  64 SW5       30.30S WCI -21
MANITOWISH WTR CLEAR    -23 -29  74 CALM      30.28S
ARBOR VITAE    CLEAR    -19 -25  73 CALM      30.29R
EAGLE RIVER    CLEAR    -20 -27  70 CALM      30.27S
LAND O LAKES   PTCLDY   -21 -27  72 CALM      30.27S
RHINELANDER    CLEAR    -18 -23  77 CALM      30.29R
PHILLIPS       PTCLDY   -24 -29  76 CALM      30.32S
ANTIGO         PTCLDY   -19 -23  82 CALM      30.31R
TOMAHAWK       CLEAR    -22 -29  73 CALM      30.33R
MERRILL        CLEAR    -21 -27  76 CALM      30.34R
$$

WIZ013-073-051300-
NORTHEAST WISCONSIN

CITY           SKY/WX    TMP DP  RH WIND       PRES   REMARKS
IRON MOUNTAIN  CLEAR    -16 -21  78 CALM      30.31R
MARINETTE      CLEAR     -8 -15  71 CALM      30.37S
OCONTO         CLEAR    -14 -19  79 CALM      30.40R
$$

WIZ017-030-035>037-045-051300-
CENTRAL WISCONSIN

CITY           SKY/WX    TMP DP  RH WIND       PRES   REMARKS
MEDFORD        CLEAR    -14 -19  80 CALM      30.33R
WAUSAU         CLEAR     -9 -16  71 NW8       30.35R WCI -25
MOSINEE        CLEAR    -11 -18  70 NW6       30.36R WCI -25
MARSHFIELD     CLEAR    -12 -19  71 NW7       30.36R WCI -27
WISC RAPIDS    CLEAR    -10 -17  71 CALM      30.41R
STEVENS POINT  CLEAR    -17 -22  79 CALM      30.39R
WAUPACA          N/A     -4 -13  63 W3        30.41R
SHAWANO        CLEAR     -5 -14  67 CALM      30.40R
CLINTONVILLE   CLEAR     -6 -15  65 NW6       30.39R WCI -18
$$

WIZ038-039-048-051-051300-
FOX VALLEY

CITY           SKY/WX    TMP DP  RH WIND       PRES   REMARKS
NWS GREEN BAY  CLEAR     -6 -13  71 NW8       30.40R WCI -21
APPLETON       CLEAR     -6 -17  59 W9        30.38R WCI -22
OSHKOSH        CLEAR     -4 -13  65 W5        30.40R WCI -15
FOND DU LAC    CLEAR     -3 -13  62 W6        30.40R WCI -15
$$

WIZ022-050-052-051300-
EAST CENTRAL WISCONSIN

CITY           SKY/WX    TMP DP  RH WIND       PRES   REMARKS
STURGEON BAY   CLEAR     -6 -17  59 W5        30.39R WCI -17
MANITOWOC      CLEAR     -5 -12  72 NW7       30.41R WCI -19
SHEBOYGAN      CLEAR     -3 -13  62 W5        30.40R WCI -13
$$

LMZ563-521-522-541>543-051300-
LAKESHORE

STATION/POSITION TIME  TEMP    WIND        PRES    VSBY  WAVE
                       AIR SEA DIR/SP/G                  HT/PER
                 (UTC) (F)     (DEG/KT/KT) (MB)    (MI)  (FT/S)
SHEBOYGAN LKSHOR 1200    2     310/  9/ 10 1031.6R
KEWAUNEE LKSHORE 1200   -4     300/  6/  7 1028.2R
NORTHPORT PIER   1200   -3     270/  6/ 10 1028.8R
SISTER BAY LKSHO 1200   -5     290/  7/  7   N/A
CHAMBERS ISLAND  1200   -6     240/  3/  6 1028.4S
MENOMINEE LKSHOR 1200   -4     280/  7     1029.5R
$$



USA.gov is the U.S. government's official web portal to all federal, state and local government web resources and services.